RH
91 86 80 82 82 81 80 79 77 74 71 68 67 67 68 65 62 62 60 61 59 57 58 60 61 64 67 70 76 69 72 63
88 86 83 88 87 79 77 72 68 67 66 67 68 68 62 57 58 57 55 57 53 54 56 59 65 70 72 77 77 75 61 54
85 85 85 90 84 74 70 67 65 62 60 61 71 69 64 60 56 54 51 58 53 58 63 67 66 64 66 68 71 64 55 52
85 84 83 76 58 71 73 72 81 72 71 68 75 67 63 57 58 53 50 57 57 60 60 61 60 63 62 62 62 57 56 53
77 83 79 65 62 76 84 80 81 78 72 76 72 66 68 64 71 70 67 62 65 63 62 64 62 66 63 63 61 61 65 58
77 77 75 72 65 76 72 74 81 81 75 75 78 79 75 72 72 68 70 73 69 72 71 66 63 60 56 61 58 60 63 62
71 70 60 58 68 71 70 75 75 80 77 74 80 78 78 76 74 73 73 69 72 70 70 67 64 62 61 57 54 56 57 62
70 67 58 60 71 72 73 71 74 78 79 77 77 78 80 75 77 73 74 73 72 72 69 70 69 67 61 57 56 58 57 61
70 71 69 65 69 68 70 66 71 78 80 76 74 76 76 76 80 79 80 75 70 72 71 70 73 64 64 61 59 60 62 68
59 56 65 64 64 65 66 70 76 82 81 79 72 71 74 77 77 78 82 75 74 74 78 75 77 76 74 69 70 69 57 67
67 69 73 71 71 71 72 69 69 74 77 78 70 70 73 75 77 78 76 77 79 76 79 80 80 73 69 70 76 68 67 64
67 69 69 68 70 69 72 68 71 72 74 74 70 73 70 76 78 77 76 76 80 79 79 74 79 78 64 66 79 71 72 77
59 62 65 72 75 73 71 73 70 71 70 68 68 72 70 76 80 74 78 77 81 75 83 79 74 74 81 80 74 65 70 78
58 58 60 64 63 63 67 62 70 67 66 64 67 68 70 67 76 78 77 79 79 77 81 81 84 80 89 89 82 79 76 66
56 55 55 63 57 54 57 56 61 63 61 62 64 66 70 71 73 76 78 80 85 81 82 81 86 84 78 90 88 95 90 79
54 53 55 52 51 53 51 58 62 67 66 64 65 63 66 69 72 74 79 81 81 77 75 84 84 89 84 73 82 86 97 94
60 58 55 56 58 59 67 63 60 65 65 66 65 67 63 65 69 72 74 80 78 79 79 83 84 87 89 89 86 87 86 94
62 60 57 53 53 58 60 54 60 62 69 74 74 72 72 68 67 72 73 72 73 80 81 82 83 86 85 87 84 84 81 85
59 53 57 55 56 59 58 57 58 63 66 70 73 76 75 73 69 72 73 69 72 74 78 83 83 90 87 86 82 76 77 77
57 56 57 55 58 61 61 61 66 67 65 72 77 77 76 70 72 70 69 70 73 76 79 81 82 83 85 85 86 85 77 82
Wind_Speed
9 10 17 18 16 17 16 16 16 15 14 13 15 17 12 13 10 10 9 8 8 9 9 9 10 11 11 10 10 11 7 5
9 9 9 8 8 15 14 13 13 13 9 10 12 16 11 12 8 7 7 6 5 7 8 10 11 11 12 7 10 11 7 6
8 8 7 6 5 9 13 14 12 9 6 6 5 4 6 5 6 4 4 9 2 9 7 12 12 12 13 13 10 3 5 4
8 9 9 7 7 6 5 6 4 4 5 5 4 6 4 3 3 3 1 13 11 12 13 12 8 4 4 8 4 5 5 6
6 8 9 8 7 4 2 3 4 4 6 5 5 4 4 3 3 4 4 9 4 6 6 4 6 4 4 4 5 5 3 4
7 7 7 7 5 4 5 5 4 4 5 7 5 4 5 4 4 5 5 4 5 5 4 5 6 6 6 6 6 5 3 3
7 6 5 7 8 5 5 6 6 5 5 6 5 5 4 4 4 4 3 3 4 5 5 5 6 6 6 6 6 6 5 3
7 7 5 7 7 7 5 7 7 6 5 5 6 4 4 5 5 4 4 4 4 4 4 5 5 5 6 6 6 5 5 6
7 6 7 8 8 6 5 6 7 5 4 6 6 6 6 6 4 4 4 4 6 5 6 5 5 5 6 5 5 6 7 7
8 8 7 7 7 5 5 6 6 5 5 4 6 6 6 6 4 4 4 5 5 4 4 4 4 4 5 5 4 5 6 11
8 8 7 7 7 6 6 7 7 5 5 4 6 6 6 6 4 4 4 4 4 4 3 3 3 5 4 4 4 5 10 11
10 7 7 7 5 6 5 6 5 5 5 5 6 5 6 5 4 5 4 4 4 4 5 5 4 5 5 5 5 7 9 9
12 10 7 5 3 4 5 5 5 4 5 6 6 5 6 6 4 5 4 5 4 6 3 5 8 7 4 4 5 8 9 7
13 11 9 6 6 4 4 6 4 5 4 5 5 5 4 5 5 5 6 5 6 7 6 3 4 7 3 1 2 2 5 9
14 12 10 4 8 8 6 7 6 4 3 4 3 5 5 6 6 6 6 5 4 6 6 7 4 5 8 4 3 1 3 3
14 12 10 8 9 9 11 5 6 4 4 4 4 6 6 6 6 6 6 4 6 5 6 5 4 5 3 6 9 4 3 3
11 11 8 7 6 7 5 6 6 4 6 7 6 5 6 6 6 6 6 5 6 6 6 6 4 4 4 3 4 5 4 4
11 10 7 8 7 8 9 12 9 7 5 5 4 4 4 6 6 6 6 6 5 5 5 6 5 5 5 5 6 4 4 3
12 12 8 7 6 7 8 9 9 8 7 5 7 4 3 5 5 6 4 5 5 5 6 6 6 4 6 5 4 5 4 3
13 11 9 8 7 7 7 8 5 5 6 5 5 4 5 5 6 6 6 6 6 6 4 5 6 5 7 5 4 4 3 2
Wind_Direction
92 92 99 96 93 95 99 100 100 102 105 113 109 105 97 81 66 62 52 46 35 15 358 351 350 343 329 320 310 331 329 312
103 98 99 102 116 117 115 109 110 112 114 109 109 102 108 89 86 77 64 56 28 356 341 353 357 349 1 316 324 348 332 328
125 120 119 117 115 129 122 116 110 109 110 136 133 125 104 106 114 104 35 34 346 351 13 38 24 6 13 19 17 355 343 354
142 143 145 156 142 142 139 123 120 78 48 73 87 86 55 134 121 113 19 44 25 20 34 26 16 2 4 13 8 359 355 359
163 158 166 174 150 167 144 108 92 74 46 22 51 82 63 62 55 39 39 35 15 22 20 14 2 7 9 6 5 6 3 353
184 187 178 210 148 148 135 118 105 83 53 33 57 61 55 52 50 46 46 20 18 24 13 356 359 359 6 14 15 3 351 353
187 178 164 119 104 118 94 90 89 84 58 40 57 60 67 65 59 55 49 29 26 18 9 2 357 356 17 16 360 351 359 16
176 151 127 108 104 99 107 98 94 78 65 54 52 61 78 74 54 38 25 32 23 20 14 6 353 15 10 352 344 344 6 41
149 127 101 103 109 105 103 113 102 94 80 57 48 43 61 82 67 32 3 41 38 20 8 8 9 14 355 339 336 8 36 58
128 112 114 107 109 108 100 106 108 104 91 74 54 42 58 78 65 27 10 51 41 23 11 360 15 19 340 332 7 57 56 60
114 111 108 104 99 102 98 98 94 92 80 74 56 44 43 84 64 24 51 59 36 19 0 32 21 359 335 3 25 34 53 64
109 108 113 109 108 102 90 91 85 83 78 68 58 44 49 78 70 48 69 66 40 17 24 17 27 346 4 23 47 59 71 67
125 129 145 138 136 133 120 123 108 86 83 84 71 52 59 65 72 57 61 68 60 36 26 37 29 6 51 24 49 63 63 72
142 152 172 180 164 159 137 135 112 117 106 101 97 78 77 79 80 62 62 67 50 43 44 39 37 29 48 30 22 7 30 58
151 162 187 166 129 117 109 108 111 106 104 99 95 87 75 71 65 66 65 62 68 51 46 43 49 25 39 98 65 20 333 22
153 163 137 148 134 130 145 139 148 147 148 126 110 93 76 74 71 73 78 63 59 58 50 54 62 42 13 32 61 73 75 349
126 128 127 111 148 139 128 122 121 132 129 121 108 88 81 80 78 74 70 69 70 80 63 67 63 76 63 29 46 61 29 62
124 115 106 100 101 121 129 134 141 132 132 134 135 110 88 80 81 77 75 72 76 90 83 84 82 90 82 63 67 66 40 35
124 124 126 126 117 125 135 140 136 145 148 143 130 111 91 87 86 78 76 76 71 83 85 81 69 82 105 93 78 70 57 42
133 136 132 142 148 146 131 131 137 134 134 124 119 121 118 108 92 80 69 66 76 69 75 84 72 62 81 91 102 96 88 36